{"data":{"norad_id":60994,"intl_designator":"2024-158E","name":"STARLINK-11267 [DTC]","alt_names":[],"object_type":"PAYLOAD","status":"ACTIVE","operator":null,"country":"US","launch_date":"2024-09-05","launch_site_code":"AFETR","launch_vehicle":null,"mission":null,"orbit_class":"UNKNOWN","rcs_meters":null,"size_class":null,"mass_kg":null,"dimensions":null,"purposes":["comms"],"wikipedia_slug":null,"has_3d_model":false,"image_url":null,"decayed_at":null,"tle_current":{"epoch":"2026-05-24T17:31:50.933568Z","epoch_age_seconds":112529,"freshness":"FRESH","line1":"1 60994U 24158E   26144.73045062 -.00000417  00000+0  14185-5 0  9998","line2":"2 60994  53.1595 266.7109 0001143  79.3382 280.7764 15.69705478 99532","mean_motion":15.69705478,"eccentricity":0.0001143,"inclination_deg":53.1595,"raan_deg":266.7109,"arg_perigee_deg":79.3382,"mean_anomaly_deg":280.7764,"bstar":1.4185e-6,"rev_number":9953,"period_min":91.736954491281,"perigee_km":358.96955137817,"apogee_km":360.50982998966,"semimajor_km":6737.8766906839,"source":"CELESTRAK","updated_at":"2026-05-25T13:38:19.322805Z"}}}